Weather History for Poplar Bluff, MO

Change the Weather History Date:

Thursday, April 26, 2012

  Actual Average Record
Temperature  
Mean Temperature 78 °F -  
Max Temperature 90 °F 71 °F 90 °F (2012)
Min Temperature 66 °F 48 °F 32 °F (1919)
Cooling Degree Days 13    
Growing Degree Days 28 (Base 50)    
Moisture  
Dew Point 58 °F    
Average Humidity 56    
Maximum Humidity 87    
Minimum Humidity 24    
Precipitation  
Precipitation 0.00 in - - ()
Sea Level Pressure  
Sea Level Pressure 29.81 in    
Wind  
Wind Speed 9 mph (NNW)    
Max Wind Speed 21 mph    
Max Gust Speed 26 mph    
Visibility 10 miles    
Events      
Averages and records for this station are not official NWS values.
T = Trace of Precipitation, MM = Missing Value Source: NWS Daily Summary

Daily Weather History Graph

Daily Weather History Graph

Search for Another Location

Airport:

Trip Planner

Search our weather history database for the weather conditions in past years. The results will help you decide how hot, cold, wet, or windy it might be!

Date:

Astronomy

Apr. 26, 2012 Rise Set
Actual Time 6:12 AM CDT 7:45 PM CDT
Civil Twilight 5:45 AM CDT 8:13 PM CDT
Nautical Twilight 5:12 AM CDT 8:46 PM CDT
Astronomical Twilight 4:37 AM CDT 9:21 PM CDT
Moon 9:55 AM CDT (4/26) No Moon Set
Length of Visible Light 14h 28m
Length of Day
13h 33m
Waxing Crescent, 24% of the Moon is Illuminated
Apr 26
Waxing Crescent
Apr 29
First Quarter
May 5
Full
May 12
Last Quarter
May 20
New

Hourly Weather History & Observations

Time (CDT) Temp. Heat Index Dew Point Humidity Pressure Visibility Wind Dir Wind Speed Gust Speed Precip Events Conditions
12:53 AM 72.0 °F - 62.1 °F 71% 29.69 in 10.0 mi SW 8.1 mph - N/A   Clear
1:53 AM 72.0 °F - 62.1 °F 71% 29.69 in 10.0 mi SW 9.2 mph - N/A   Clear
2:53 AM 71.1 °F - 62.1 °F 73% 29.69 in 10.0 mi SW 8.1 mph - N/A   Clear
3:53 AM 70.0 °F - 62.1 °F 76% 29.70 in 10.0 mi SW 8.1 mph - N/A   Clear
4:53 AM 68.0 °F - 62.1 °F 81% 29.71 in 10.0 mi SW 8.1 mph - N/A   Clear
5:53 AM 66.9 °F - 61.0 °F 81% 29.72 in 10.0 mi SW 6.9 mph - N/A   Clear
6:53 AM 66.0 °F - 62.1 °F 87% 29.75 in 10.0 mi SW 5.8 mph - N/A   Clear
7:53 AM 69.1 °F - 63.0 °F 81% 29.77 in 9.0 mi SW 8.1 mph - N/A   Clear
8:53 AM 75.0 °F - 64.0 °F 69% 29.78 in 10.0 mi WNW 8.1 mph - N/A   Clear
9:53 AM 80.1 °F 81.2 °F 62.1 °F 54% 29.80 in 10.0 mi North 10.4 mph - N/A   Clear
10:53 AM 82.0 °F 83.0 °F 62.1 °F 51% 29.82 in 10.0 mi NNE 8.1 mph - N/A   Clear
11:53 AM 82.9 °F 83.7 °F 62.1 °F 49% 29.84 in 10.0 mi NNW 9.2 mph - N/A   Clear
12:53 PM 87.1 °F 86.7 °F 60.1 °F 40% 29.84 in 10.0 mi North 11.5 mph - N/A   Clear
1:53 PM 86.0 °F 85.7 °F 60.1 °F 41% 29.84 in 10.0 mi North 10.4 mph - N/A   Clear
2:53 PM 90.0 °F - 48.9 °F 24% 29.84 in 10.0 mi North 20.7 mph 26.5 mph N/A   Clear
3:53 PM 88.0 °F - 51.1 °F 28% 29.84 in 10.0 mi NNW 12.7 mph - N/A   Clear
4:53 PM 86.0 °F - 48.0 °F 27% 29.85 in 10.0 mi NNE 10.4 mph - N/A   Clear
5:53 PM 84.0 °F - 48.9 °F 29% 29.86 in 10.0 mi North 9.2 mph - N/A   Clear
6:53 PM 80.1 °F 79.9 °F 53.1 °F 39% 29.86 in 10.0 mi North 5.8 mph - N/A   Clear
7:53 PM 75.0 °F - 53.1 °F 46% 29.88 in 10.0 mi NNE 4.6 mph - N/A   Clear
8:53 PM 72.0 °F - 54.0 °F 53% 29.90 in 10.0 mi NNE 4.6 mph - N/A   Clear
9:53 PM 70.0 °F - 54.0 °F 57% 29.93 in 10.0 mi NNE 5.8 mph - N/A   Clear
10:53 PM 68.0 °F - 54.0 °F 61% 29.93 in 10.0 mi NE 5.8 mph - N/A   Clear
11:53 PM 66.9 °F - 54.0 °F 63% 29.94 in 10.0 mi NNE 5.8 mph - N/A   Clear